Regional Weather Roundup
Issued by NWS Sioux Falls, SD

Home | Current Version | Previous Version | Text Only | Print | Product List | Glossary On
Versions: 1 2 3 4 5 6 7 8 9 10 11 12 13 14 15 16 17 18 19 20 21 22 23 24 25 26 27 28 29 30 31 32 33 34 35 36 37 38 39 40 41 42 43 44 45 46 47 48 49 50
000
ASUS43 KFSD 010002
RWRFSD

WEATHER ROUNDUP FOR SE SOUTH DAKOTA/SW MINNESOTA/NW IOWA
NATIONAL WEATHER SERVICE SIOUX FALLS SD
700 PM CDT FRI JUL 31 2015

NOTE: "FAIR" INDICATES FEW OR NO CLOUDS BELOW 12,000 FEET WITH NO
SIGNIFICANT WEATHER AND OR OBSTRUCTIONS TO VISIBILITY.


SDZ038>040-050-052>070-010100-
SOUTHEAST SOUTH DAKOTA

CITY           SKY/WX    TMP DP  RH WIND       PRES   REMARKS
BROOKINGS      SUNNY     81  57  44 W6        30.07F
CHAMBERLAIN    NOT AVBL
HURON          SUNNY     87  53  31 CALM      30.03F
6HR MIN TEMP:  81; 6HR MAX TEMP:  87;

MADISON        FAIR      81  57  44 CALM      30.07F
MITCHELL       SUNNY     85  61  44 SE5       30.04F
6HR MIN TEMP:  82; 6HR MAX TEMP:  89;

SIOUX FALLS    MOSUNNY   84  57  39 N3        30.06F
6HR MIN TEMP:  82; 6HR MAX TEMP:  88;

WINNER         FAIR      90  54  29 E13       30.07S
YANKTON        SUNNY     82  68  61 E7        30.03F
$$

MNZ071-072-080-081-089-090-097-098-010100-
SOUTHWEST MINNESOTA

CITY           SKY/WX    TMP DP  RH WIND       PRES   REMARKS
FAIRMONT       SUNNY     81  54  39 NW6       30.05F
JACKSON        SUNNY     79  57  47 NW5       30.07F
LUVERNE        SUNNY     81  59  47 SW3       30.07F
MARSHALL       SUNNY     81  57  44 CALM      30.05F
6HR MIN TEMP:  81; 6HR MAX TEMP:  84;

MONTEVIDEO     SUNNY     82  61  47 CALM      30.04F
PIPESTONE      SUNNY     79  63  57 CALM      30.08S
REDWOOD FALLS  SUNNY     81  56  42 W6        30.02F
TRACY          SUNNY     81  61  50 SE3       30.05F
WINDOM         SUNNY     79  55  44 CALM      30.06F
WORTHINGTON    SUNNY     79  59  50 W3        30.07F
$$

IAZ001>003-012>014-020>022-031-032-NEZ013-014-SDZ071-010100-
NORTHWEST IOWA

CITY           SKY/WX    TMP DP  RH WIND       PRES   REMARKS
DENISON        SUNNY     82  72  69 E8        30.03F
ESTHERVILLE    SUNNY     80  57  45 N3        30.06F
SIOUX CITY     SUNNY     84  70  62 E10       30.03F
6HR MIN TEMP:  83; 6HR MAX TEMP:  87;

SPENCER        SUNNY     83  56  39 CALM      30.07F
6HR MIN TEMP:  83; 6HR MAX TEMP:  87;

$$

ABBREVIATIONS USED IN REMARKS
   TC - TEMPERATURE IN CELSIUS
  WCI - WIND CHILL INDEX
   HX - HEAT INDEX
  VSB - VISIBILITY



USA.gov is the U.S. government's official web portal to all federal, state and local government web resources and services.